Content
SEND FEEDBACK

United States of America Flag

MANGILAO, GUAM


Home > North America > United States > Guam
Elevation: 60 feet     Latitude: 13 27N     Longitude: 144 49E

WEATHER
 
SELECT A DAY
Number of Records: 393,941;   Date Range: 1/1/95 - 3/22/16
 
SHARE

PRINT THIS DATA

[ ← Previous Day ]
WEATHER ALMANAC - FEBRUARY 11, 2014
[ Next Day → ]
[ °C ]   °F
Weather ElementAverageHighLow
Temperature77.1 °F82.6 °F (11:58 am)69.6 °F (1:58 am)
Dewpoint71.8 °F74.1 °F (9:58 am)64.6 °F (1:58 am)
Humidity83.7 %94 % (7:51 am)68 % (12:58 pm)
Barometer29.78 in29.84 in (9:23 am)29.72 in (2:58 pm)
Wind Speed5.2 mph10.4 mph (10:58 am)
Weather ElementAverage
Visibility9.8 mi
Wind DirectionE (85.9 °)

Weather ElementTotal
Precipitation---
Cooling Degree Days11.1 (Base 65)
Growing Degree Days26.1 (Base 50)
Averaged from 32 records on February 11, 2014
WEATHER CONDITIONS BREAKOUT
WIND DIRECTION BREAKOUT
WEATHER BY HOUR - FEBRUARY 11, 2014
[ °C ]   °F
Local TimeTemperatureDewpointHumidityBarometerVisibilityWind DirectionWind SpeedGust SpeedPrecipitationEventsConditions
1:58 AM69.6 °F64.6 °F84 %29.75 in10.0 miEast (80°)5.8 mphPartly Cloudy
2:58 AM74.5 °F70.5 °F87 %29.73 in10.0 miENE (70°)5.8 mphPartly Cloudy
3:58 AM74.1 °F70.2 °F87 %29.73 in10.0 miENE (70°)6.9 mphClear
4:58 AM74.3 °F70.3 °F87 %29.73 in10.0 miEast (80°)6.9 mphClear
5:58 AM73.6 °F70.2 °F89 %29.75 in10.0 miENE (70°)5.8 mphClear
6:58 AM73.8 °F70.5 °F90 %29.78 in10.0 miNE (50°)2.3 mphClear
7:51 AM75.2 °F73.4 °F94 %29.82 in9.0 miESE (110°)3.5 mphRainLight Rain
7:56 AM75.2 °F73.4 °F94 %29.82 in8.0 miEast (90°)1.2 mphRainLight Rain
7:58 AM75.2 °F73.4 °F94 %29.79 in8.0 miEast (80°)1.2 mph0.00 inRainLight Rain
8:08 AM75.2 °F73.4 °F94 %29.82 in10.0 miENE (70°)1.2 mphLight Drizzle
8:09 AM77.0 °F73.4 °F89 %29.82 in10.0 miEast (80°)1.2 mphMostly Cloudy
8:58 AM77.7 °F73.8 °F88 %29.81 in10.0 miEast (100°)5.8 mph0.00 inMostly Cloudy
9:18 AM78.8 °F73.4 °F83 %29.83 in10.0 miEast (100°)8.1 mphMostly Cloudy
9:23 AM78.8 °F73.4 °F83 %29.84 in10.0 miEast (100°)5.8 mphScattered Clouds
9:28 AM78.8 °F73.4 °F83 %29.84 in10.0 miEast (90°)8.1 mphMostly Cloudy
9:43 AM77.0 °F69.8 °F78 %29.84 in10.0 miESE (110°)8.1 mphMostly Cloudy
9:58 AM80.8 °F74.1 °F80 %29.81 in10.0 miEast (90°)8.1 mphMostly Cloudy
10:58 AM82.4 °F73.6 °F75 %29.81 in10.0 miESE (110°)10.4 mphScattered Clouds
11:58 AM82.6 °F72.5 °F71 %29.78 in10.0 miEast (100°)10.4 mphClear
12:58 PM82.4 °F71.1 °F68 %29.75 in10.0 miEast (100°)10.4 mphClear
1:58 PM82.4 °F72.5 °F72 %29.73 in10.0 miEast (100°)9.2 mphClear
2:58 PM81.7 °F72.1 °F73 %29.72 in10.0 miESE (110°)8.1 mphClear
3:58 PM81.1 °F72.1 °F74 %29.72 in10.0 miEast (90°)6.9 mphClear
4:58 PM80.6 °F72.3 °F76 %29.73 in10.0 miSE (130°)5.8 mphClear
5:58 PM79.0 °F71.8 °F78 %29.74 in10.0 miESE (120°)3.5 mphClear
6:58 PM73.6 °F68.4 °F84 %29.76 in10.0 miESE (120°)4.6 mphClear
7:00 PM75.2 °F69.8 °F83 %29.79 in10.0 miESE (120°)5.8 mphClear
7:58 PM77.2 °F72.9 °F86 %29.78 in10.0 miESE (110°)4.6 mphPartly Cloudy
8:58 PM76.1 °F72.0 °F87 %29.79 in10.0 miEast (100°)1.2 mphClear
9:58 PM76.3 °F71.4 °F85 %29.81 in10.0 miCalmClear
10:58 PM74.3 °F71.6 °F91 %29.81 in10.0 miCalmClear
11:58 PM73.9 °F71.2 °F91 %29.81 in10.0 miCalmClear
Hourly data recorded from PGUA, located miles away from Mangilao, Guam




STORIES FROM OUR PARTNERS